{"data":{"norad_id":69432,"intl_designator":"2026-126N","name":"STARLINK-37870","alt_names":[],"object_type":"PAYLOAD","status":"ACTIVE","operator":null,"country":"US","launch_date":"2026-06-07","launch_site_code":"AFWTR","launch_vehicle":null,"mission":null,"orbit_class":"UNKNOWN","rcs_meters":null,"size_class":null,"mass_kg":null,"dimensions":null,"purposes":["comms"],"wikipedia_slug":null,"has_3d_model":false,"image_url":null,"decayed_at":null,"tle_current":{"epoch":"2026-09-19T10:11:15.057312Z","epoch_age_seconds":118418,"freshness":"FRESH","line1":"1 69432U 26126N   26262.42447983  .00012616  00000+0  39245-3 0  9991","line2":"2 69432  97.2831 123.7395 0002304  96.9121 263.2384 15.33444142 17369","mean_motion":15.33444142,"eccentricity":0.0002304,"inclination_deg":97.2831,"raan_deg":123.7395,"arg_perigee_deg":96.9121,"mean_anomaly_deg":263.2384,"bstar":0.00039245,"rev_number":1736,"period_min":93.906257199684,"perigee_km":463.9689427833,"apogee_km":467.12251178403,"semimajor_km":6843.6827272837,"source":"CELESTRAK","updated_at":"2026-09-20T09:00:44.196631Z"}}}